Location: Domont
(49.0278°N, 2.3264°E)
Time: 00:41:32
(UTC+00:00)

Cosmos 1703 - Pass Details

Date: 16 October 2021
Orbit: 521 x 539 km, 82.5° (Epoch: 27 November)

Event Time Altitude Azimuth Distance (km) Brightness Sun altitude
Rises 18:00:28 0° 354° (N) 2,702 6.9 -10.9°
Reaches altitude 10° 18:02:41 10° 360° (N) 1,802 5.9 -11.2°
Maximum altitude 18:06:33 50° 76° (ENE) 686 3.4 -11.9°
Drops below altitude 10° 18:10:21 10° 153° (SSE) 1,776 5.6 -12.5°
Sets 18:12:31 0° 159° (SSE) 2,658 6.6 -12.9°
